Météo par heure à Ali Sabieh

Ce jour, 13 Mai, Jeudi

Heure Température Précipitation Vent Pression Humidité
00:00 +32°C° 0 mm 2 m/s 696 mmHg 40%
01:00 +32°C° 0 mm 2 m/s 696 mmHg 40%
02:00 +31°C° 0 mm 1 m/s 695 mmHg 40%
03:00 +31°C° 0 mm 1 m/s 695 mmHg 39%
04:00 +31°C° 0 mm 1 m/s 695 mmHg 39%
05:00 +31°C° 0 mm 1 m/s 695 mmHg 38%
06:00 +31°C° 0 mm 1 m/s 696 mmHg 37%
07:00 +32°C° 0 mm 1 m/s 696 mmHg 35%
08:00 +32°C° 0 mm 1 m/s 697 mmHg 33%
09:00 +33°C° 0 mm 1 m/s 697 mmHg 30%
10:00 +35°C° 0 mm 2 m/s 697 mmHg 28%
11:00 +36°C° 0 mm 2 m/s 697 mmHg 26%
12:00 +38°C° 0 mm 3 m/s 697 mmHg 24%
13:00 +38°C° 0 mm 3 m/s 696 mmHg 23%
14:00 +39°C° 0 mm 3 m/s 695 mmHg 21%
15:00 +40°C° 0 mm 4 m/s 695 mmHg 20%
16:00 +40°C° 0 mm 4 m/s 695 mmHg 20%
17:00 +39°C° 0 mm 3 m/s 695 mmHg 20%
18:00 +38°C° 0 mm 3 m/s 695 mmHg 20%
19:00 +37°C° 0 mm 3 m/s 695 mmHg 24%
20:00 +36°C° 0 mm 3 m/s 695 mmHg 28%
21:00 +34°C° 0 mm 3 m/s 696 mmHg 32%
22:00 +34°C° 0 mm 2 m/s 696 mmHg 34%
23:00 +32°C° 0 mm 2 m/s 695 mmHg 36%

Demain, 14 Mai, Vendredi

Heure Température Précipitation Vent Pression Humidité
00:00 +32°C° 0 mm 1 m/s 695 mmHg 38%
01:00 +32°C° 0 mm 1 m/s 695 mmHg 38%
02:00 +31°C° 0 mm 1 m/s 695 mmHg 38%
03:00 +29°C° 0 mm 0 m/s 694 mmHg 39%
04:00 +31°C° 0 mm 1 m/s 695 mmHg 39%
05:00 +31°C° 0 mm 1 m/s 695 mmHg 39%
06:00 +31°C° 0 mm 1 m/s 696 mmHg 39%
07:00 +32°C° 0 mm 1 m/s 696 mmHg 35%
08:00 +34°C° 0 mm 2 m/s 696 mmHg 31%
09:00 +35°C° 0 mm 2 m/s 697 mmHg 27%
10:00 +36°C° 0 mm 3 m/s 697 mmHg 24%
11:00 +37°C° 0 mm 3 m/s 697 mmHg 22%
12:00 +38°C° 0 mm 3 m/s 696 mmHg 20%
13:00 +39°C° 0 mm 3 m/s 696 mmHg 19%
14:00 +40°C° 0 mm 3 m/s 695 mmHg 18%
15:00 +41°C° 0 mm 4 m/s 695 mmHg 17%
16:00 +40°C° 0 mm 3 m/s 694 mmHg 18%
17:00 +39°C° 0 mm 3 m/s 694 mmHg 19%
18:00 +39°C° 0 mm 3 m/s 694 mmHg 19%
19:00 +38°C° 0 mm 3 m/s 695 mmHg 23%
20:00 +37°C° 0 mm 2 m/s 695 mmHg 26%
21:00 +36°C° 0 mm 2 m/s 695 mmHg 29%
22:00 +35°C° 0 mm 2 m/s 695 mmHg 32%
23:00 +35°C° 0 mm 2 m/s 695 mmHg 35%

Après-demain, 15 Mai, Samedi

Heure Température Précipitation Vent Pression Humidité
00:00 +33°C° 0 mm 1 m/s 695 mmHg 37%
01:00 +32°C° 0 mm 1 m/s 695 mmHg 38%
02:00 +32°C° 0 mm 1 m/s 694 mmHg 39%
03:00 +32°C° 0 mm 1 m/s 694 mmHg 40%
04:00 +29°C° 0 mm 0 m/s 694 mmHg 40%
05:00 +29°C° 0 mm 0 m/s 695 mmHg 41%
06:00 +29°C° 0 mm 0 m/s 695 mmHg 41%
07:00 +32°C° 0 mm 1 m/s 695 mmHg 36%
08:00 +35°C° 0 mm 2 m/s 696 mmHg 31%
09:00 +36°C° 0 mm 2 m/s 696 mmHg 27%
10:00 +37°C° 0 mm 3 m/s 696 mmHg 24%
11:00 +38°C° 0 mm 3 m/s 696 mmHg 21%
12:00 +41°C° 0 mm 4 m/s 695 mmHg 18%
13:00 +41°C° 0 mm 4 m/s 695 mmHg 17%
14:00 +41°C° 0 mm 4 m/s 694 mmHg 17%
15:00 +42°C° 0 mm 4 m/s 694 mmHg 16%
16:00 +41°C° 0 mm 4 m/s 694 mmHg 17%
17:00 +41°C° 0 mm 4 m/s 694 mmHg 18%
18:00 +40°C° 0 mm 4 m/s 694 mmHg 19%
19:00 +38°C° 0 mm 4 m/s 694 mmHg 24%
20:00 +36°C° 0 mm 3 m/s 695 mmHg 28%
21:00 +35°C° 0 mm 3 m/s 695 mmHg 32%
22:00 +34°C° 0 mm 2 m/s 695 mmHg 34%
23:00 +34°C° 0 mm 2 m/s 695 mmHg 36%

16 Mai, Dimanche

Heure Température Précipitation Vent Pression Humidité
00:00 +32°C° 0 mm 2 m/s 694 mmHg 37%
01:00 +32°C° 0 mm 2 m/s 694 mmHg 37%
02:00 +32°C° 0 mm 1 m/s 694 mmHg 37%
03:00 +31°C° 0 mm 1 m/s 694 mmHg 36%
04:00 +31°C° 0 mm 1 m/s 694 mmHg 35%
05:00 +31°C° 0 mm 2 m/s 694 mmHg 34%
06:00 +31°C° 0 mm 2 m/s 695 mmHg 34%
07:00 +32°C° 0 mm 2 m/s 695 mmHg 29%
08:00 +35°C° 0 mm 3 m/s 696 mmHg 23%
09:00 +36°C° 0 mm 4 m/s 696 mmHg 18%
10:00 +37°C° 0 mm 4 m/s 696 mmHg 17%
11:00 +40°C° 0 mm 4 m/s 696 mmHg 15%
12:00 +41°C° 0 mm 4 m/s 695 mmHg 14%
13:00 +41°C° 0 mm 4 m/s 695 mmHg 13%
14:00 +42°C° 0 mm 4 m/s 694 mmHg 13%
15:00 +42°C° 0 mm 4 m/s 694 mmHg 13%
16:00 +41°C° 0 mm 4 m/s 694 mmHg 13%
17:00 +40°C° 0 mm 3 m/s 694 mmHg 14%
18:00 +39°C° 0 mm 3 m/s 694 mmHg 15%
19:00 +38°C° 0 mm 3 m/s 694 mmHg 18%
20:00 +37°C° 0 mm 3 m/s 694 mmHg 22%
21:00 +35°C° 0 mm 3 m/s 695 mmHg 25%
22:00 +35°C° 0 mm 3 m/s 695 mmHg 26%
23:00 +34°C° 0 mm 2 m/s 695 mmHg 27%

17 Mai, Lundi

Heure Température Précipitation Vent Pression Humidité
00:00 +32°C° 0 mm 2 m/s 695 mmHg 29%
01:00 +32°C° 0 mm 2 m/s 695 mmHg 29%
02:00 +32°C° 0 mm 1 m/s 694 mmHg 29%
03:00 +31°C° 0 mm 1 m/s 694 mmHg 29%
04:00 +31°C° 0 mm 1 m/s 694 mmHg 30%
05:00 +31°C° 0 mm 1 m/s 695 mmHg 31%
06:00 +31°C° 0 mm 1 m/s 695 mmHg 32%
07:00 +34°C° 0 mm 2 m/s 696 mmHg 28%
08:00 +35°C° 0 mm 3 m/s 696 mmHg 24%
09:00 +37°C° 0 mm 4 m/s 697 mmHg 21%
10:00 +38°C° 0 mm 4 m/s 696 mmHg 19%
11:00 +40°C° 0 mm 4 m/s 696 mmHg 17%
12:00 +41°C° 0 mm 4 m/s 696 mmHg 14%
13:00 +42°C° 0 mm 4 m/s 695 mmHg 13%
14:00 +42°C° 0 mm 4 m/s 695 mmHg 12%
15:00 +43°C° 0 mm 4 m/s 694 mmHg 10%
16:00 +42°C° 0 mm 4 m/s 694 mmHg 11%
17:00 +42°C° 0 mm 4 m/s 694 mmHg 12%
18:00 +41°C° 0 mm 4 m/s 694 mmHg 12%
19:00 +38°C° 0 mm 4 m/s 695 mmHg 16%
20:00 +37°C° 0 mm 3 m/s 695 mmHg 19%
21:00 +35°C° 0 mm 3 m/s 696 mmHg 22%
22:00 +35°C° 0 mm 2 m/s 695 mmHg 23%
23:00 +34°C° 0 mm 2 m/s 695 mmHg 23%

18 Mai, Mardi

Heure Température Précipitation Vent Pression Humidité
00:00 +33°C° 0 mm 1 m/s 695 mmHg 24%
01:00 +33°C° 0 mm 1 m/s 695 mmHg 23%
02:00 +32°C° 0 mm 1 m/s 694 mmHg 22%
03:00 +30°C° 0 mm 0 m/s 694 mmHg 21%
04:00 +32°C° 0 mm 1 m/s 694 mmHg 20%
05:00 +32°C° 0 mm 1 m/s 695 mmHg 19%
06:00 +32°C° 0 mm 2 m/s 695 mmHg 18%
07:00 +34°C° 0 mm 2 m/s 696 mmHg 16%
08:00 +36°C° 0 mm 3 m/s 696 mmHg 14%
09:00 +37°C° 0 mm 4 m/s 697 mmHg 12%
10:00 +38°C° 0 mm 4 m/s 697 mmHg 10%
11:00 +41°C° 0 mm 5 m/s 696 mmHg 9%
12:00 +42°C° 0 mm 5 m/s 696 mmHg 7%
13:00 +42°C° 0 mm 5 m/s 696 mmHg 7%
14:00 +42°C° 0 mm 4 m/s 695 mmHg 7%
15:00 +43°C° 0 mm 4 m/s 695 mmHg 6%
16:00 +42°C° 0 mm 4 m/s 695 mmHg 7%
17:00 +42°C° 0 mm 4 m/s 695 mmHg 7%
18:00 +42°C° 0 mm 4 m/s 695 mmHg 8%
19:00 +40°C° 0 mm 4 m/s 695 mmHg 10%
20:00 +38°C° 0 mm 3 m/s 695 mmHg 12%
21:00 +37°C° 0 mm 3 m/s 695 mmHg 14%
22:00 +36°C° 0 mm 2 m/s 695 mmHg 16%
23:00 +35°C° 0 mm 2 m/s 695 mmHg 18%
Voir plus

Nous avons besoin de votre consentement

Meteoprog et ses fournisseurs de services peuvent stocker et accéder à des données personnelles telles que des cookies, des identifiants d'appareils ou d'autres technologies similaires sur votre appareil et traiter ces données pour personnaliser le contenu et les publicités, ainsi que pour fournir des fonctionnalités de médias sociaux et analyser le trafic.

  • Stocker et/ou accéder à des informations sur votre appareil

    Des cookies, des identifiants d'appareils ou d'autres informations peuvent être stockés ou accessibles sur votre appareil aux fins indiquées ci-dessus.

  • Annonces et contenus personnalisés, mesure des annonces et des contenus, connaissance de l'audience et développement de produits

    Les annonces et le contenu peuvent être personnalisés en fonction d'un profil. D'autres données peuvent être ajoutées pour mieux personnaliser les annonces et le contenu. Les performances des publicités et du contenu peuvent être mesurées. Il est possible d'obtenir des informations sur le public qui a vu les publicités et le contenu. Ces données peuvent être utilisées pour développer ou améliorer l'expérience de l'utilisateur, les systèmes et les logiciels.

En cliquant sur "J'accepte", vous autorisez l'utilisation de cookies, des identifiants d'appareils, des balises web ou d'autres technologies similaires. Vos paramètres peuvent être modifiés dans le navigateur de votre appareil.

Dans certains cas, des intérêts légitimes peuvent être invoqués plutôt qu'un consentement. Vous pouvez en savoir plus à ce sujet dans notre Politique de confidentialité et de cookies.